Regional Weather Roundup
Issued by NWS

Home | Current Version | Previous Version | Text Only | Print | Product List | Glossary Off
Versions: 1 2 3 4 5 6 7 8 9 10 11 12 13 14 15 16 17 18 19 20 21 22 23 24 25 26 27 28 29 30 31 32 33 34 35 36 37 38 39 40 41 42 43 44 45 46 47 48 49 50

816
ASUS43 KBIS 231102
RWRND

NORTH DAKOTA REGIONAL WEATHER ROUNDUP
NATIONAL WEATHER SERVICE BISMARCK ND
600 AM CDT MON OCT 23 2017

NOTE: "FAIR" INDICATES FEW OR NO CLOUDS BELOW 12,000 FEET WITH NO
SIGNIFICANT WEATHER AND/OR OBSTRUCTIONS TO VISIBILITY.


NDZ001>003-009>011-017-231200-
NORTHWEST NORTH DAKOTA

CITY           SKY/WX    TMP DP  RH WIND       PRES   REMARKS
WILLISTON      CLEAR     43  34  70 NW12      30.03R
MINOT          CLOUDY    43  36  76 W18       29.90R
MINOT AFB      MOCLDY    41  36  82 NW20G25   29.88R
$$

NDZ018>021-031>035-040>046-231200-
SOUTHWEST NORTH DAKOTA

CITY           SKY/WX    TMP DP  RH WIND       PRES   REMARKS
BISMARCK       CLEAR     48  37  65 W17G26    29.91R
DICKINSON      PTCLDY    45  34  65 W29G37    29.98R
GARRISON         N/A     43  35  73 NW18      29.91R
HETTINGER ARPT CLEAR     44  33  65 W30G40    30.04R
$$

NDZ004>008-012>016-024-026-027-054-231200-
NORTHEAST NORTH DAKOTA

CITY           SKY/WX    TMP DP  RH WIND       PRES   REMARKS
GRAND FORKS    MOCLDY    47  39  74 W18       29.67R
DEVILS LAKE    CLOUDY    43  39  86 NW24G33   29.76R
$$

NDZ022-023-025-028>030-036>039-047>053-231200-
SOUTHEAST NORTH DAKOTA

CITY           SKY/WX    TMP DP  RH WIND       PRES   REMARKS
FARGO          MOCLDY    51  40  65 W22G36    29.71R
JAMESTOWN      MOCLDY    47  35  63 NW23G32   29.80R
$$





USA.gov is the U.S. government's official web portal to all federal, state and local government web resources and services.